{"data":{"norad_id":66438,"epoch":"2026-09-20T16:37:02.703360Z","epoch_age_seconds":76798,"freshness":"FRESH","line1":"1 66438U 25259S   26263.69239240  .00008898  00000+0  33250-3 0  9992","line2":"2 66438  43.0015 253.1396 0001427 267.6856  92.3832 15.27578985 49204","mean_motion":15.27578985,"eccentricity":0.0001427,"inclination_deg":43.0015,"raan_deg":253.1396,"arg_perigee_deg":267.6856,"mean_anomaly_deg":92.3832,"bstar":0.0003325,"rev_number":4920,"period_min":94.266811349202,"perigee_km":482.07304362687,"apogee_km":484.03122700609,"semimajor_km":6861.1891353165,"source":"CELESTRAK","updated_at":"2026-09-21T09:00:35.909429Z"}}